Flag for U.S.A. Weather past 2 weeks in Fort Wayne, Indiana, U.S.A.

Now
26 °F

Partly sunny.


Feels Like: 16 °F
Forecast: 18 / 24 °F
Wind: 12 mph from West

Location: Fort Wayne International Airport

Current Time: Jan 30, 2015 at 5:08:13 PM

Latest Report: Jan 30, 2015 at 3:54 PM


Visibility: 10 mi

Pressure: 30.48 "Hg

Humidity: 57%

Dew point: 13 °F

Location of Fort WayneLocation

Historic Weather in Fort Wayne — Graph

°F

Fort Wayne temperature yesterday

Maximum temperature yesterday: 39 °F (at 11:54 AM)
Minimum temperature yesterday: 30 °F (at 12:54 AM)
Average temperature yesterday: 34 °F

Past Weeks' High & Low Weather Summary

 TemperatureHumidityPressure
High42 °F (Jan 17, 1:54 PM)100% (Jan 19, 9:54 AM)30.51 "Hg (Jan 19, 9:54 AM)
Low6 °F (Jan 28, 5:54 AM)55% (Jan 27, 2:54 PM)29.67 "Hg (Jan 24, 2:54 PM)
Average28 °F81%30.04 "Hg
* Reported Jan 15 2:54 PM — Jan 30 2:54 PM, Fort Wayne, Weather by CustomWeather, © 2014

Note: Actual official high and low records may vary slightly from our data, if they occured in-between our weather recording intervals... More about our weather records

Advertising

Fort Wayne weather history for previous 24 hours

 ConditionsComfort  
Time TempWeatherWind HumidityBarometerVisibility
2:54 PM
Jan 30
26 °FPartly sunny.12 mph57%30.48 "Hg10 mi
1:54 PM24 °FPartly sunny.9 mph57%30.48 "Hg10 mi
12:54 PM25 °FPartly sunny.12 mph58%30.49 "Hg10 mi
11:54 AM24 °FPartly sunny.13 mph57%30.50 "Hg10 mi
10:54 AM22 °FPartly sunny.13 mph60%30.51 "Hg10 mi
9:54 AM23 °FPartly sunny.22 mph57%30.49 "Hg10 mi
8:54 AM22 °FLight snow. Partly sunny.13 mph62%30.46 "Hg10 mi
7:54 AM21 °FPartly sunny.15 mph65%30.44 "Hg10 mi
6:54 AM21 °FPassing clouds.13 mph65%30.40 "Hg10 mi
5:54 AM22 °FPassing clouds.12 mph72%30.37 "Hg10 mi
4:54 AM24 °FPassing clouds.12 mph65%30.33 "Hg10 mi
3:54 AM25 °FPassing clouds.15 mph63%30.30 "Hg10 mi
2:54 AM29 °FLight snow. Partly cloudy.18 mph72%30.26 "Hg10 mi
1:54 AM30 °FLight snow. Partly cloudy.15 mph72%30.21 "Hg10 mi
1:03 AM32 °FLight snow. Overcast.14 mph79%30.17 "Hg10 mi
12:54 AM31 °FLight snow. Mostly cloudy.17 mph82%30.19 "Hg10 mi
11:54 PM
Jan 29
33 °FLight snow. Overcast.12 mph78%30.17 "Hg9 mi
11:04 PM32 °FLight snow. Overcast.12 mph85%30.14 "Hg9 mi
9:54 PM32 °FLight freezing rain. Ice fog.9 mph88%30.15 "Hg6 mi
8:54 PM33 °FLight rain. Mostly cloudy.18 mph78%30.13 "Hg8 mi
7:54 PM33 °FLight snow. Fog.10 mph88%30.10 "Hg5 mi
6:54 PM33 °FDrizzle. Fog.9 mph88%30.07 "Hg4 mi
6:04 PM32 °FLight rain. Ice fog.14 mph92%30.01 "Hg2 mi
5:54 PM33 °FLight rain. Fog.12 mph88%30.02 "Hg2 mi
Weather by CustomWeather, © 2014

See weather overviewHow to use our weather pages